Weather History for KICR

Nearest airport to NA, NA.

See history from more local stations
Change the Weather History Date:

Wednesday, July 2, 2014

  Actual Average Record
Temperature  
Mean Temperature 62 °F 73 °F  
Max Temperature 76 °F 86 °F 105 °F (2012)
Min Temperature 47 °F 61 °F 47 °F (2014)
Degree Days  
Heating Degree Days 3 0  
Month to date heating degree days 7 0  
Since 1 June heating degree days 44 54  
Since 1 July heating degree days 7 0  
Cooling Degree Days 0 9  
Month to date cooling degree days 0 17  
Year to date cooling degree days 198 192  
Since 1 June cooling degree days 117 162  
Growing Degree Days 10 (Base 50)    
Moisture  
Dew Point 48 °F    
Average Humidity 66    
Maximum Humidity 93    
Minimum Humidity 38    
Precipitation  
Precipitation 0.00 in 0.13 in 0.01 in (2008)
Month to date precipitation 0.03 0.25  
Year to date precipitation 8.98 11.97  
Sea Level Pressure  
Sea Level Pressure 30.17 in    
Wind  
Wind Speed 5 mph (WNW)    
Max Wind Speed 13 mph    
Max Gust Speed 18 mph    
Visibility 10 miles    
Events      
T = Trace of Precipitation, MM = Missing Value Source: NWS Daily Summary

Daily Weather History Graph

Daily Weather History Graph

Search for Another Location

Airport or City:

Trip Planner

Search our weather history database for the weather conditions in past years. The results will help you decide how hot, cold, wet, or windy it might be!

Date:

Astronomy

Jul. 02, 2014 Rise Set
Actual Time 6:03 AM CDT 9:23 PM CDT
Civil Twilight 5:27 AM CDT 9:58 PM CDT
Nautical Twilight 4:41 AM CDT 10:44 PM CDT
Astronomical Twilight 3:44 AM CDT 11:41 PM CDT
Moon 11:17 AM CDT (7/2) No Moon Set
Length of Visible Light 16h 31m
Length of Day
15h 20m
Waxing Crescent, 24% of the Moon is Illuminated
Jul 2
Waxing Crescent
Jul 5
First Quarter
Jul 12
Full
Jul 18
Last Quarter
Jul 26
New

Hourly Weather History & Observations

Time (CDT) Temp. Dew Point Humidity Pressure Visibility Wind Dir Wind Speed Gust Speed Precip Events Conditions
12:53 AM 51.1 °F 46.0 °F 83% 30.13 in 10.0 mi WNW 8.1 mph - N/A   Clear
1:53 AM 50.0 °F 45.0 °F 83% 30.14 in 10.0 mi WNW 8.1 mph - N/A   Clear
2:53 AM 48.9 °F 45.0 °F 86% 30.15 in 10.0 mi WNW 6.9 mph - N/A   Clear
3:53 AM 48.0 °F 44.1 °F 86% 30.16 in 10.0 mi NW 6.9 mph - N/A   Clear
4:53 AM 46.9 °F 44.1 °F 90% 30.19 in 10.0 mi West 4.6 mph - N/A   Clear
5:53 AM 46.9 °F 44.1 °F 90% 30.20 in 10.0 mi WSW 6.9 mph - N/A   Clear
6:53 AM 48.9 °F 45.0 °F 86% 30.20 in 10.0 mi WSW 6.9 mph - N/A   Clear
7:53 AM 53.1 °F 48.0 °F 83% 30.22 in 10.0 mi West 5.8 mph - N/A   Clear
8:53 AM 59.0 °F 51.1 °F 75% 30.22 in 10.0 mi West 5.8 mph - N/A   Clear
9:53 AM 62.1 °F 46.9 °F 58% 30.23 in 10.0 mi NW 4.6 mph - N/A   Clear
10:53 AM 64.9 °F 48.0 °F 54% 30.22 in 10.0 mi Calm Calm - N/A   Clear
11:53 AM 68.0 °F 48.9 °F 50% 30.21 in 10.0 mi North 6.9 mph - N/A   Clear
12:53 PM 70.0 °F 48.9 °F 47% 30.21 in 10.0 mi Variable 4.6 mph - N/A   Clear
1:53 PM 72.0 °F 50.0 °F 46% 30.19 in 10.0 mi North 8.1 mph 18.4 mph N/A   Clear
2:53 PM 73.9 °F 50.0 °F 43% 30.18 in 10.0 mi North 10.4 mph - N/A   Partly Cloudy
4:53 PM 75.0 °F 50.0 °F 41% 30.16 in 10.0 mi Variable 5.8 mph - N/A   Clear
5:53 PM 75.0 °F 48.0 °F 38% 30.14 in 10.0 mi SW 3.5 mph - N/A   Clear
6:53 PM 75.0 °F 48.9 °F 40% 30.12 in 10.0 mi Calm Calm - N/A   Clear
7:53 PM 73.9 °F 52.0 °F 46% 30.12 in 10.0 mi Calm Calm - N/A   Clear
8:53 PM 70.0 °F 53.1 °F 55% 30.11 in 10.0 mi NE 5.8 mph - N/A   Clear
9:53 PM 68.0 °F 48.9 °F 50% 30.12 in 10.0 mi NE 4.6 mph - N/A   Clear
10:53 PM 64.0 °F 51.1 °F 63% 30.13 in 10.0 mi East 3.5 mph - N/A   Clear
11:53 PM 60.1 °F 48.9 °F 67% 30.14 in 10.0 mi SSE 8.1 mph - N/A   Clear